| time (UTC) | temp C | wind direction | speed KPH | gust KPH | rain 1hr cm | rain 24hr cm | rain mn cm | humidity % | barometer mb |
| 20260506214550 | 31 | 136 | 1.6 | 14.5 | 0.00 | 0.00 | 0.00 | 70 | 1009.0 |
| 20260506213049 | 31 | 98 | 3.2 | 11.3 | 0.00 | 0.00 | 0.00 | 71 | 1009.0 |
| 20260506211556 | 31 | 132 | 1.6 | 12.9 | 0.00 | 0.00 | 0.00 | 74 | 1009.2 |
| 20260506210046 | 30 | 125 | 1.6 | 14.5 | 0.00 | 0.00 | 0.00 | 75 | 1009.4 |
| 20260506204549 | 30 | 90 | 8.0 | 16.1 | 0.00 | 0.00 | 0.00 | 73 | 1009.5 |
| 20260506203058 | 30 | 103 | 3.2 | 17.7 | 0.00 | 0.00 | 0.00 | 73 | 1009.6 |
| 20260506201552 | 30 | 126 | 4.8 | 16.1 | 0.00 | 0.00 | 0.00 | 75 | 1009.6 |
| 20260506200053 | 28 | 93 | 11.3 | 22.5 | 0.00 | 0.00 | 0.00 | 77 | 1009.7 |
| 20260506194553 | 29 | 132 | 8.0 | 14.5 | 0.00 | 0.00 | 0.00 | 76 | 1009.9 |
| 20260506193053 | 29 | 84 | 8.0 | 16.1 | 0.00 | 0.00 | 0.00 | 76 | 1009.9 |
| 20260506191547 | 29 | 122 | 3.2 | 20.9 | 0.00 | 0.00 | 0.00 | 77 | 1010.1 |
| 20260506190052 | 29 | 113 | 6.4 | 14.5 | 0.00 | 0.00 | 0.00 | 77 | 1010.3 |
| 20260506184546 | 29 | 120 | 4.8 | 14.5 | 0.00 | 0.00 | 0.00 | 77 | 1010.4 |
| 20260506183101 | 28 | 131 | 1.6 | 9.7 | 0.00 | 0.00 | 0.00 | 82 | 1010.6 |
| 20260506181608 | 27 | 110 | 4.8 | 12.9 | 0.00 | 0.00 | 0.00 | 83 | 1011.0 |
| 20260506180054 | 28 | 123 | 1.6 | 6.4 | 0.00 | 0.00 | 0.00 | 81 | 1011.2 |
| 20260506174551 | 28 | 118 | 0.0 | 6.4 | 0.00 | 0.00 | 0.00 | 82 | 1011.5 |
| 20260506173119 | 27 | 124 | 1.6 | 9.7 | 0.00 | 0.00 | 0.00 | 83 | 1011.7 |
| 20260506171553 | 27 | 127 | 3.2 | 16.1 | 0.00 | 0.00 | 0.00 | 83 | 1011.8 |
| 20260506170052 | 27 | 100 | 1.6 | 11.3 | 0.00 | 0.00 | 0.00 | 85 | 1011.9 |
| 20260506164550 | 26 | 119 | 3.2 | 8.0 | 0.00 | 0.00 | 0.00 | 88 | 1011.8 |
| 20260506163048 | 26 | 118 | 3.2 | 9.7 | 0.00 | 0.00 | 0.00 | 89 | 1012.0 |
| 20260506161550 | 26 | 116 | 3.2 | 9.7 | 0.00 | 0.00 | 0.00 | 88 | 1011.7 |
| 20260506154551 | 26 | 94 | 3.2 | 6.4 | 0.00 | 0.00 | 0.00 | 87 | 1011.5 |
| 20260506153050 | 26 | 120 | 1.6 | 9.7 | 0.00 | 0.00 | 0.00 | 87 | 1011.6 |
| 20260506151550 | 26 | 109 | 4.8 | 11.3 | 0.00 | 0.00 | 0.00 | 86 | 1011.1 |
| 20260506150051 | 26 | 116 | 3.2 | 9.7 | 0.00 | 0.00 | 0.00 | 87 | 1010.9 |
| 20260506144553 | 26 | 113 | 3.2 | 12.9 | 0.00 | 0.00 | 0.00 | 88 | 1010.6 |
| 20260506143048 | 25 | 115 | 4.8 | 9.7 | 0.00 | 0.00 | 0.00 | 89 | 1010.4 |
| 20260506141552 | 25 | 114 | 3.2 | 6.4 | 0.00 | 0.00 | 0.00 | 91 | 1010.4 |
| 20260506140051 | 25 | 112 | 3.2 | 11.3 | 0.00 | 0.00 | 0.00 | 92 | 1010.7 |
| 20260506134548 | 24 | 120 | 3.2 | 9.7 | 0.00 | 0.00 | 0.00 | 93 | 1010.8 |
| 20260506133048 | 24 | 124 | 0.0 | 3.2 | 0.00 | 0.00 | 0.00 | 94 | 1010.7 |
| 20260506131559 | 23 | 122 | 0.0 | 4.8 | 0.00 | 0.00 | 0.00 | 94 | 1010.8 |
| 20260506130052 | 23 | 120 | 3.2 | 9.7 | 0.00 | 0.00 | 0.00 | 95 | 1010.7 |
| 20260506124555 | 23 | 122 | 1.6 | 6.4 | 0.00 | 0.00 | 0.00 | 95 | 1010.7 |
| 20260506123052 | 23 | 124 | 1.6 | 4.8 | 0.00 | 0.00 | 0.00 | 95 | 1010.6 |
| 20260506121547 | 23 | 124 | 0.0 | 1.6 | 0.00 | 0.00 | 0.00 | 95 | 1010.3 |
| 20260506120050 | 23 | 123 | 1.6 | 3.2 | 0.00 | 0.00 | 0.00 | 94 | 1010.2 |
| 20260506114545 | 23 | 124 | 0.0 | 8.0 | 0.00 | 0.00 | 0.00 | 94 | 1010.1 |
| 20260506113053 | 23 | 113 | 1.6 | 4.8 | 0.00 | 0.00 | 0.00 | 94 | 1009.7 |
| 20260506111552 | 23 | 122 | 3.2 | 8.0 | 0.00 | 0.00 | 0.00 | 94 | 1009.8 |
| 20260506110050 | 23 | 102 | 3.2 | 8.0 | 0.00 | 0.00 | 0.00 | 94 | 1009.5 |
| 20260506104550 | 23 | 115 | 3.2 | 8.0 | 0.00 | 0.00 | 0.00 | 94 | 1009.5 |
| 20260506103050 | 23 | 114 | 1.6 | 6.4 | 0.00 | 0.00 | 0.00 | 94 | 1009.5 |
| 20260506101549 | 23 | 110 | 3.2 | 9.7 | 0.00 | 0.00 | 0.00 | 94 | 1009.5 |
| 20260506100049 | 23 | 125 | 3.2 | 9.7 | 0.00 | 0.00 | 0.00 | 93 | 1009.4 |
| 20260506094607 | 23 | 108 | 1.6 | 9.7 | 0.00 | 0.00 | 0.00 | 93 | 1009.3 |
| 20260506093048 | 23 | 119 | 3.2 | 8.0 | 0.00 | 0.00 | 0.00 | 93 | 1009.0 |
| 20260506091550 | 23 | 122 | 3.2 | 6.4 | 0.00 | 0.00 | 0.00 | 92 | 1009.2 |
| 20260506090052 | 23 | 110 | 1.6 | 9.7 | 0.00 | 0.00 | 0.00 | 92 | 1009.4 |
| 20260506084552 | 23 | 120 | 3.2 | 9.7 | 0.00 | 0.00 | 0.00 | 92 | 1009.5 |
| 20260506083050 | 24 | 120 | 1.6 | 4.8 | 0.00 | 0.00 | 0.00 | 92 | 1009.4 |
| 20260506081555 | 24 | 116 | 3.2 | 6.4 | 0.00 | 0.00 | 0.00 | 91 | 1009.5 |
| 20260506073045 | 24 | 98 | 3.2 | 12.9 | 0.00 | 0.00 | 0.00 | 91 | 1009.9 |
| 20260506071551 | 24 | 89 | 4.8 | 12.9 | 0.00 | 0.00 | 0.00 | 91 | 1009.9 |
| 20260506061549 | 24 | 101 | 3.2 | 16.1 | 0.00 | 0.00 | 0.00 | 90 | 1010.4 |
| 20260506060110 | 24 | 118 | 4.8 | 11.3 | 0.00 | 0.00 | 0.00 | 91 | 1010.3 |
| 20260506044604 | 24 | 115 | 3.2 | 12.9 | 0.00 | 0.00 | 0.00 | 89 | 1010.4 |
| 20260506043049 | 24 | 119 | 3.2 | 11.3 | 0.00 | 0.00 | 0.00 | 89 | 1010.1 |
| 20260506041550 | 24 | 117 | 3.2 | 11.3 | 0.00 | 0.00 | 0.00 | 89 | 1010.2 |
| 20260506040053 | 25 | 98 | 3.2 | 11.3 | 0.00 | 0.00 | 0.00 | 89 | 1010.2 |
| 20260506034547 | 25 | 122 | 4.8 | 12.9 | 0.00 | 0.00 | 0.00 | 88 | 1010.1 |
| 20260506033047 | 25 | 117 | 4.8 | 12.9 | 0.00 | 0.00 | 0.00 | 87 | 1009.7 |
| 20260506031557 | 25 | 113 | 6.4 | 17.7 | 0.00 | 0.00 | 0.00 | 86 | 1009.6 |
| 20260506030053 | 25 | 107 | 6.4 | 14.5 | 0.00 | 0.00 | 0.00 | 86 | 1009.6 |
| 20260506024557 | 25 | 101 | 6.4 | 12.9 | 0.00 | 0.00 | 0.00 | 86 | 1009.4 |
| 20260506023050 | 25 | 109 | 6.4 | 17.7 | 0.00 | 0.00 | 0.00 | 86 | 1009.2 |
| 20260506021549 | 25 | 117 | 8.0 | 17.7 | 0.00 | 0.00 | 0.00 | 86 | 1008.8 |
| 20260506020048 | 25 | 103 | 4.8 | 16.1 | 0.00 | 0.00 | 0.00 | 85 | 1008.9 |
| 20260506014552 | 25 | 117 | 6.4 | 16.1 | 0.00 | 0.00 | 0.00 | 84 | 1008.7 |
| 20260506013052 | 25 | 96 | 6.4 | 19.3 | 0.00 | 0.00 | 0.00 | 83 | 1008.5 |
| 20260506011549 | 26 | 110 | 6.4 | 16.1 | 0.00 | 0.00 | 0.00 | 82 | 1008.1 |
| 20260506010048 | 26 | 105 | 6.4 | 14.5 | 0.00 | 0.00 | 0.00 | 81 | 1008.5 |
| 20260506004551 | 26 | 107 | 8.0 | 19.3 | 0.00 | 0.00 | 0.00 | 81 | 1008.2 |
| 20260506003049 | 26 | 112 | 8.0 | 19.3 | 0.00 | 0.00 | 0.00 | 80 | 1007.9 |
| 20260506001552 | 26 | 98 | 9.7 | 22.5 | 0.00 | 0.00 | 0.00 | 78 | 1008.0 |
| 20260506000047 | 26 | 98 | 6.4 | 19.3 | 0.00 | 0.00 | 0.00 | 78 | 1008.0 |
| 20260505234551 | 26 | 115 | 12.9 | 22.5 | 0.00 | 0.00 | 0.00 | 77 | 1007.9 |
| 20260505233050 | 27 | 110 | 9.7 | 24.1 | 0.00 | 0.00 | 0.00 | 78 | 1007.8 |
| 20260505231601 | 27 | 112 | 8.0 | 22.5 | 0.00 | 0.00 | 0.00 | 78 | 1007.7 |
| 20260505230056 | 27 | 75 | 11.3 | 27.4 | 0.00 | 0.00 | 0.00 | 77 | 1007.7 |
| 20260505224548 | 27 | 115 | 9.7 | 29.0 | 0.00 | 0.00 | 0.00 | 78 | 1007.8 |
| 20260505223050 | 27 | 124 | 8.0 | 22.5 | 0.00 | 0.00 | 0.00 | 77 | 1008.0 |
| 20260505221549 | 27 | 90 | 8.0 | 27.4 | 0.00 | 0.00 | 0.00 | 77 | 1007.9 |
| 20260505220046 | 27 | 118 | 8.0 | 22.5 | 0.00 | 0.00 | 0.00 | 77 | 1008.1 |